DW2427 Weather Reports


Display with metric or nautical units.
time (UTC)temp
F
wind
direction
speed
MPH
gust
MPH
rain 1hr
in
rain 24hr
in
rain mn
in
humidity
%
barometer
mb
20180924185517 89 89 6.0 13.0 0.00 0.00 0.00 56 1014.8
20180924185016 89 102 5.0 13.0 0.00 0.00 0.00 55 1014.8
20180924184517 89 134 4.0 12.0 0.00 0.00 0.00 55 1015.1
20180924184016 89 140 5.0 12.0 0.00 0.00 0.00 56 1015.2
20180924183517 89 138 5.0 12.0 0.00 0.00 0.00 54 1015.2
20180924183016 89 137 4.0 11.0 0.00 0.00 0.00 56 1015.3
20180924182516 89 140 4.0 11.0 0.00 0.00 0.00 55 1015.4
20180924182017 88 141 5.0 11.0 0.00 0.00 0.00 57 1015.5
20180924181516 88 123 6.0 12.0 0.00 0.00 0.00 56 1015.5
20180924181016 88 102 6.0 12.0 0.00 0.00 0.00 58 1015.6
20180924180517 87 99 7.0 12.0 0.00 0.00 0.00 60 1015.6
20180924180016 87 111 7.0 12.0 0.00 0.00 0.00 58 1015.8
20180924175517 88 124 5.0 13.0 0.00 0.00 0.00 57 1015.9
20180924175016 88 102 6.0 13.0 0.00 0.00 0.00 59 1016.0
20180924174517 87 89 7.0 13.0 0.00 0.00 0.00 59 1016.1
20180924174016 88 89 6.0 11.0 0.00 0.00 0.00 59 1016.1
20180924173516 88 88 6.0 13.0 0.00 0.00 0.00 61 1016.2
20180924173017 88 99 5.0 13.0 0.00 0.00 0.00 59 1016.3
20180924172516 88 120 5.0 12.0 0.00 0.00 0.00 60 1016.3
20180924172017 87 136 5.0 12.0 0.00 0.00 0.00 61 1016.3
20180924171516 87 120 5.0 12.0 0.00 0.00 0.00 60 1016.3
20180924171016 87 90 4.0 10.0 0.00 0.00 0.00 61 1016.3
20180924170516 87 83 3.0 11.0 0.00 0.00 0.00 63 1016.4
20180924170016 87 105 4.0 11.0 0.00 0.00 0.00 62 1016.5
20180924165516 86 138 4.0 10.0 0.00 0.00 0.00 64 1016.6
20180924165016 86 136 3.0 10.0 0.00 0.00 0.00 63 1016.5
20180924164516 86 133 3.0 11.0 0.00 0.00 0.00 65 1016.6
20180924164016 86 132 2.0 11.0 0.00 0.00 0.00 65 1016.5
20180924163517 86 145 2.0 9.0 0.00 0.00 0.00 64 1016.6
20180924163016 86 168 3.0 9.0 0.00 0.00 0.00 65 1016.6
20180924162516 86 152 4.0 8.0 0.00 0.00 0.00 65 1016.7
20180924162016 86 103 5.0 9.0 0.00 0.00 0.00 65 1016.7
20180924161516 85 102 5.0 13.0 0.00 0.00 0.00 67 1016.6
20180924161016 85 113 5.0 13.0 0.00 0.00 0.00 66 1016.6
20180924160516 84 115 4.0 12.0 0.00 0.00 0.00 68 1016.7
20180924160016 84 114 3.0 12.0 0.00 0.00 0.00 68 1016.7
20180924155515 84 105 4.0 12.0 0.00 0.00 0.00 67 1016.8
20180924155016 84 108 3.0 11.0 0.00 0.00 0.00 70 1016.8
20180924154516 84 122 3.0 11.0 0.00 0.00 0.00 69 1016.8
20180924154016 84 129 6.0 11.0 0.00 0.00 0.00 69 1017.0
20180924153516 84 117 8.0 12.0 0.00 0.00 0.00 69 1017.0
20180924153015 84 107 7.0 14.0 0.00 0.00 0.00 68 1017.0
20180924152516 84 100 4.0 16.0 0.00 0.00 0.00 70 1016.9
20180924152015 84 93 2.0 16.0 0.00 0.00 0.00 70 1017.0
20180924151516 83 106 4.0 13.0 0.00 0.00 0.00 75 1016.9
20180924151015 83 108 6.0 14.0 0.00 0.00 0.00 74 1017.0
20180924150516 83 105 6.0 15.0 0.00 0.00 0.00 73 1017.1
20180924150016 83 99 7.0 15.0 0.00 0.00 0.00 76 1017.0
20180924145516 82 96 7.0 13.0 0.00 0.00 0.00 76 1017.1
20180924145015 82 99 7.0 13.0 0.00 0.00 0.00 76 1017.1